Home > Weather > Bentonville > Past weeks

Flag for USA Past Weather in Bentonville, Arkansas, USA — Yesterday and Last 2 Weeks

Now
81 °F

Passing clouds.


Feels Like: 83 °F
Forecast: 69 / 85 °F
Wind: 3 mph from West

Location: Bentonville Weather Observing Station

Current Time: Aug 27, 2016 at 12:11:35 PM

Latest Report: Aug 27, 2016 at 11:35 AM


Visibility: 10 mi

Pressure: 30.11 "Hg

Humidity: 62%

Dew Point: 66 °F

Location of BentonvilleLocation

Past Weather in Bentonville — Graph

°F

Bentonville Temperature Yesterday

Maximum temperature yesterday: 81 °F (at 11:15 AM)
Minimum temperature yesterday: 70 °F (at 4:15 AM)
Average temperature yesterday: 74 °F

High & Low Weather Summary for the Past Weeks

 TemperatureHumidityPressure
High93 °F (Aug 24, 3:35 PM)94% (Aug 16, 5:35 AM)30.21 "Hg (Aug 16, 5:35 AM)
Low55 °F (Aug 21, 5:55 AM)38% (Aug 25, 3:55 PM)29.85 "Hg (Aug 12, 5:55 PM)
Average75 °F71%30.06 "Hg
* Reported Aug 12 10:15 AM — Aug 27 10:55 AM, Bentonville, Weather by CustomWeather, © 2016

Note: Actual official high and low records may vary slightly from our data, if they occured in-between our weather recording intervals... More about our weather records

Advertising

Bentonville Weather History for the Previous 24 Hours

Scroll right to see more
 ConditionsComfort  
Time TempWeatherWind HumidityBarometerVisibility
10:55 AM
Sat, Aug 27
81 °FSunny.3 mph66%30.11 "Hg10 mi
10:35 AM81 °FScattered clouds.6 mph70%30.11 "Hg10 mi
10:15 AM79 °FScattered clouds.7 mph74%30.11 "Hg10 mi
9:55 AM79 °FSunny.3 mph74%30.11 "Hg10 mi
9:35 AM77 °FSunny.No wind79%30.11 "Hg10 mi
9:15 AM75 °FSunny.3 mph83%30.11 "Hg10 mi
8:55 AM73 °FSunny.No wind89%30.11 "Hg10 mi
8:35 AM73 °FSunny.6 mph83%30.11 "Hg10 mi
8:15 AM73 °FSunny.3 mph83%30.11 "Hg10 mi
7:55 AM72 °FSunny.No wind88%30.11 "Hg8 mi
7:35 AM72 °FClear.No wind83%30.10 "Hg6 mi
7:15 AM70 °FPassing clouds.No wind88%30.10 "Hg5 mi
6:55 AM70 °FPassing clouds.No wind83%30.09 "Hg4 mi
6:35 AM70 °FClear.No wind83%30.08 "Hg5 mi
6:15 AM70 °FClear.No wind83%30.07 "Hg4 mi
5:55 AM70 °FClear.No wind83%30.06 "Hg6 mi
5:35 AM70 °FClear.No wind83%30.06 "Hg7 mi
5:15 AM70 °FClear.No wind88%30.06 "Hg10 mi
4:55 AM70 °FClear.No wind83%30.06 "Hg9 mi
4:35 AM70 °FClear.No wind88%30.05 "Hg10 mi
4:15 AM72 °FClear.No wind83%30.06 "Hg10 mi
3:55 AM72 °FClear.3 mph83%30.06 "Hg10 mi
3:35 AM72 °FClear.3 mph83%30.05 "Hg10 mi
3:15 AM72 °FClear.No wind83%30.05 "Hg10 mi
2:55 AM72 °FClear.5 mph83%30.05 "Hg10 mi
2:35 AM70 °FClear.5 mph88%30.05 "Hg10 mi
2:15 AM70 °FClear.5 mph88%30.05 "Hg10 mi
1:55 AM70 °FClear.No wind83%30.05 "Hg5 mi
1:35 AM70 °FClear.No wind83%30.06 "Hg10 mi
1:15 AM72 °FClear.No wind83%30.06 "Hg10 mi
12:55 AM72 °FClear.No wind83%30.06 "Hg10 mi
12:35 AM72 °FClear.No wind83%30.07 "Hg10 mi
12:15 AM72 °FClear.No wind83%30.07 "Hg10 mi
11:55 PM
Fri, Aug 26
72 °FClear.No wind83%30.07 "Hg10 mi
11:35 PM72 °FClear.No wind83%30.07 "Hg10 mi
11:15 PM72 °FClear.No wind83%30.07 "Hg10 mi
10:55 PM72 °FClear.No wind83%30.06 "Hg10 mi
10:35 PM72 °FClear.No wind83%30.06 "Hg10 mi
10:15 PM72 °FClear.No wind83%30.06 "Hg10 mi
9:55 PM72 °FClear.No wind83%30.07 "Hg10 mi
9:35 PM72 °FClear.No wind83%30.07 "Hg10 mi
9:15 PM73 °FClear.No wind78%30.06 "Hg10 mi
8:55 PM73 °FClear.6 mph78%30.06 "Hg10 mi
8:35 PM73 °FSunny.3 mph78%30.06 "Hg10 mi
8:15 PM73 °FSunny.No wind78%30.07 "Hg10 mi
7:55 PM73 °FSunny.No wind78%30.08 "Hg10 mi
7:35 PM75 °FSunny.3 mph74%30.07 "Hg10 mi
7:15 PM75 °FSunny.3 mph74%30.06 "Hg10 mi
6:55 PM75 °FSunny.3 mph78%30.05 "Hg10 mi
6:35 PM75 °FSunny.7 mph78%30.04 "Hg10 mi
6:15 PM75 °FSunny.6 mph83%30.05 "Hg10 mi
5:55 PM75 °FSunny.5 mph83%30.05 "Hg10 mi
5:35 PM75 °FSunny.No wind78%30.06 "Hg10 mi
5:15 PM75 °FSunny.3 mph78%30.06 "Hg10 mi
4:55 PM75 °FSunny.No wind78%30.06 "Hg10 mi
4:35 PM75 °FSunny.No wind78%30.06 "Hg10 mi
4:15 PM75 °FPassing clouds.No wind83%30.06 "Hg10 mi
3:55 PM75 °FSunny.No wind78%30.07 "Hg10 mi
3:35 PM73 °FScattered clouds.3 mph83%30.07 "Hg8 mi
3:15 PM73 °FBroken clouds.3 mph89%30.07 "Hg5 mi
2:55 PM73 °FThundershowers. Partly sunny.No wind89%30.09 "Hg4 mi
2:35 PM73 °FThundershowers. Passing clouds.6 mph83%30.10 "Hg5 mi
2:15 PM73 °FScattered clouds.8 mph89%30.13 "Hg5 mi
1:55 PM73 °FBroken clouds.3 mph89%30.13 "Hg4 mi
1:35 PM73 °FBroken clouds.6 mph89%30.13 "Hg5 mi
1:15 PM73 °FScattered clouds.6 mph89%30.13 "Hg5 mi
12:55 PM73 °FThundershowers. Scattered clouds.No wind83%30.13 "Hg8 mi
12:35 PM73 °FBroken clouds.3 mph83%30.13 "Hg9 mi
12:15 PM75 °FThundershowers. Mostly cloudy.No wind83%30.14 "Hg10 mi
Weather by CustomWeather, © 2016

See weather overviewHow to use our weather pages